This demonstration page uses our WeatherBlox Daily Observations layout. Learn more.

39.92423, -83.80882

Hourly Observations for May 8, 2016

Temp ( °F °C ) Dew Point ( °F °C ) Humidity (%) Winds ( mph kmh ) Pressure ( in mb ) Visibility ( mi km ) Precip ( " mm )
12:56 am 00:56 Clear 53 11.6 37 2.7 55 55 WNW 12 19 29.82 1010 10 16.0934 0 0
1:56 am 01:56 Mostly Clear 51 10.5 38 3.3 61 61 WNW 9 15 29.83 1010 10 16.0934 0 0
2:56 am 02:56 Mostly Clear 47 8.3 39 3.8 74 74 WNW 6 9 29.86 1011 10 16.0934 0 0
3:56 am 03:56 Mostly Clear 47 8.3 39 3.8 74 74 WNW 3 6 29.86 1011 10 16.0934 0 0
4:56 am 04:56 Clear 44 6.6 38 3.3 80 80 WNW 5 7 29.88 1012 10 16.0934 0 0
5:56 am 05:56 Clear 42 5.5 38 3.3 86 86 WNW 5 7 29.88 1012 10 16.0934 0 0
6:56 am 06:56 Sunny 41 5 38 3.3 89 89 NW 3 6 29.91 1013 10 16.0934 0 0
7:56 am 07:56 Sunny 45 7.2 41 5 86 86 Calm 29.94 1014 10 16.0934 0 0
8:56 am 08:56 Sunny 51 10.5 43 6.1 74 74 Calm 29.97 1015 10 16.0934 0 0
9:56 am 09:56 Sunny 56 13.3 39 3.8 53 53 ESE 5 7 29.98 1015 10 16.0934 0 0
10:56 am 10:56 Sunny 59 15 38 3.3 46 46 SSW 6 9 29.99 1016 10 16.0934 0 0
11:56 am 11:56 Sunny 62 16.6 40 4.4 45 45 Calm 29.99 1016 10 16.0934 0 0
12:56 pm 12:56 Sunny 64 17.7 40 4.4 42 42 VRB 3 6 29.99 1016 10 16.0934 0 0
1:56 pm 13:56 Mostly Sunny 64 17.7 40 4.4 42 42 SW 8 13 29.99 1016 10 16.0934 0 0
2:56 pm 14:56 Sunny 63 17.2 38 3.3 40 40 SSW 10 17 29.98 1015 10 16.0934 0 0
3:56 pm 15:56 Sunny 61 16.1 39 3.8 44 44 SSW 12 19 29.96 1014 10 16.0934 0 0
4:56 pm 16:56 Sunny 58 14.4 48 8.8 69 69 SW 17 28 29.99 1016 10 16.0934 0 0
5:56 pm 17:56 Sunny 55 12.7 47 8.3 75 75 WSW 10 17 29.98 1015 10 16.0934 0 0
6:56 pm 18:56 Sunny 55 12.7 47 8.3 75 75 WSW 6 9 30 1016 10 16.0934 0 0
7:56 pm 19:56 Sunny 54 12.2 47 8.3 77 77 W 6 9 30.02 1017 10 16.0934 0 0
8:56 pm 20:56 Clear 51 10.5 47 8.3 86 86 W 3 6 30.02 1017 10 16.0934 0 0
9:56 pm 21:56 Clear 51 10.5 46 7.7 83 83 Calm 30.03 1017 10 16.0934 0 0
10:56 pm 22:56 Cloudy 49 9.4 47 8.3 93 93 Calm 30.03 1017 10 16.0934 0 0
11:56 pm 23:56 Cloudy 49 9.4 48 8.8 96 96 NE 3 6 30.01 1016 10 16.0934 0 0

Powered by AerisWeather